📊 Raw Sensor Data

Showing records 50926 to 50950 of 85,141 total

ID Distance (ft) Battery V Battery A Int Temp (°F) Int Humid (%) Ext Temp (°F) Solar V RSSI SNR Time Stamp
34228 15.2 4.02 0 62 39 55 5.10 -77 7 03/06/2025 01:15 PM
34227 15.3 4.02 0 66 37 54 5.10 -77 8 03/06/2025 01:00 PM
34226 15.3 4.02 0 66 37 57 5.10 -77 8 03/06/2025 12:45 PM
34225 15.3 4.02 0 64 38 57 5.10 -77 7 03/06/2025 12:30 PM
34224 15.3 4.10 0 65 37 56 5.10 -77 7 03/06/2025 12:15 PM
34223 15.3 4.02 0 65 36 57 5.10 -77 8 03/06/2025 12:00 PM
34222 15.3 4.02 0 64 36 58 5.10 -77 8 03/06/2025 11:45 AM
34221 15.3 4.02 0 63 36 56 5.10 -77 7 03/06/2025 11:30 AM
34220 15.3 4.02 0 59 37 53 5.10 -77 8 03/06/2025 11:15 AM
34219 15.3 4.02 0 60 37 55 5.10 -76 8 03/06/2025 11:00 AM
34218 15.3 4.03 0 59 37 54 5.10 -77 7 03/06/2025 10:45 AM
34217 15.2 4.12 0 57 38 53 5.10 -76 7 03/06/2025 10:30 AM
34216 15.3 4.02 0 59 36 52 5.10 -77 7 03/06/2025 10:15 AM
34215 15.4 4.02 0 60 35 52 5.10 -77 8 03/06/2025 10:00 AM
34214 15.5 4.02 0 61 34 54 5.10 -77 7 03/06/2025 09:45 AM
34213 15.4 4.11 0 57 35 56 5.10 -75 8 03/06/2025 09:30 AM
34212 15.4 4.02 0 54 36 52 5.10 -75 8 03/06/2025 09:15 AM
34211 15.3 4.11 0 53 36 50 5.10 -74 7 03/06/2025 09:00 AM
34210 15.3 4.02 0 51 35 48 5.10 -75 8 03/06/2025 08:45 AM
34209 15.3 4.02 0 50 35 51 5.10 -75 7 03/06/2025 08:31 AM
34208 15.3 4.02 0 48 36 52 5.10 -75 8 03/06/2025 08:15 AM
34207 15.2 4.15 43 46 36 46 4.50 -74 7 03/06/2025 08:00 AM
34206 15.2 4.01 0 45 35 47 5.10 -74 8 03/06/2025 07:45 AM
34205 15.2 4.01 0 44 35 48 5.10 -72 8 03/06/2025 07:30 AM
34204 15.1 4.01 0 41 36 46 5.10 -75 8 03/06/2025 07:15 AM